Location: Vienna
(38.9012°N, 77.2653°W)
Time: 10:03:03
(UTC-04:00)

ISS - Visible Passes

Search period start: 25 April 2018 00:00
Search period end: 05 May 2018 00:00
Orbit: 403 x 406 km, 51.6° (Epoch: 25 April)

Date Brightness Start Highest point End Pass type
(mag) Time Alt. Az. Time Alt. Az. Time Alt. Az.
29 Apr -1.4 05:37:46 10° S 05:40:05 18° SE 05:42:25 10° E visible
01 May -3.0 05:28:33 10° SSW 05:31:42 46° SE 05:34:50 10° ENE visible
02 May -2.0 04:38:12 18° SSE 04:39:28 23° SE 04:42:08 10° ENE visible
03 May -0.9 03:48:00 11° ESE 03:48:00 11° ESE 03:48:34 10° ESE visible
03 May -3.7 05:20:39 14° WSW 05:23:23 65° NW 05:26:39 10° NE visible
04 May -3.6 04:30:22 47° S 04:31:02 61° SE 04:34:16 10° ENE visible
